{"data":{"norad_id":64414,"intl_designator":"2025-129C","name":"STARLINK-34225","alt_names":[],"object_type":"PAYLOAD","status":"ACTIVE","operator":null,"country":"US","launch_date":"2025-06-17","launch_site_code":"AFWTR","launch_vehicle":null,"mission":null,"orbit_class":"UNKNOWN","rcs_meters":null,"size_class":null,"mass_kg":null,"dimensions":null,"purposes":["comms"],"wikipedia_slug":null,"has_3d_model":false,"image_url":null,"decayed_at":null,"tle_current":{"epoch":"2026-09-20T14:07:45.813216Z","epoch_age_seconds":126776,"freshness":"FRESH","line1":"1 64414U 25129C   26263.58872469  .00010482  00000+0  36842-3 0  9996","line2":"2 64414  70.0020 300.5549 0003528 273.7083  86.3689 15.29591092 70543","mean_motion":15.29591092,"eccentricity":0.0003528,"inclination_deg":70.002,"raan_deg":300.5549,"arg_perigee_deg":273.7083,"mean_anomaly_deg":86.3689,"bstar":0.00036842,"rev_number":7054,"period_min":94.14280767791,"perigee_km":474.6152578086,"apogee_km":479.4522662983,"semimajor_km":6855.1707620535,"source":"CELESTRAK","updated_at":"2026-09-21T09:00:35.345960Z"}}}